(2020 TR6) |
Classification: Apollo [NEO] SPK-ID: 54068391 |
[ hide orbit diagram ]
For accurate long-term ephemerides, please instead use our Horizons system.This orbit viewer was implemented using two-body methods, and hence should not be used for determining accurate long-term trajectories (over several years or decades) or planetary encounter circumstances.
Orbital Elements at Epoch 2459135.5 (2020-Oct-13.0) TDB
Reference: JPL 1 (heliocentric ecliptic J2000)
Element | Value | Uncertainty (1-sigma) | Units |
e | .6567245465426776 | 0.0019817 | |
a | 2.35620551676698 | 0.012593 | au |
q | .8088275172068297 | 0.00034645 | au |
i | .7969431884600017 | 0.0018892 | deg |
node | 205.7641432711516 | 0.0014806 | deg |
peri | 239.2292821825005 | 0.0014158 | deg |
M | 347.7503413108722 | 0.10791 | deg |
tp | 2459180.451032017946 (2020-Nov-26.95103202) | 0.035616 | TDB |
period | 1321.046727679298 3.62 | 10.591 0.029 | d yr |
n | .2725111780356303 | 0.0021847 | deg/d |
Q | 3.90358351632713 | 0.020863 | au |
|
| | Orbit Determination Parameters
Additional Information
|
[ show covariance matrix ]
Physical Parameter Table
Parameter |
Symbol |
Value |
Units |
Sigma |
Reference |
Notes |
absolute magnitude |
H |
27.8 |
|
.30372 |
E2020U37 |
autocmod 2.8 |
|
[ hide close-approach data ]
Close-Approach Data ...sorted by Date/Time (TDB)
|
Date/Time (TDB) |
Time Uncertainty (days_HH:MM) |
Body |
Nominal Distance (au) |
Minimum Distance (au) |
Maximum Distance (au) |
V-relative (km/s) |
V-infinity (km/s) |
JD (TDB) |
Time Uncertainty (minutes) |
Semi-major axis (km) |
Semi-minor axis (km) |
range-LOV angle (deg) |
N-sigma |
BP |
Orbit Ref. |
Reference |
Modified |
2019-Mar-29 02:33 |
5_03:23 |
Jupiter |
1.88609935531505 |
1.8754021942768 |
1.89698644796471 |
5.3972581600752 |
5.31340021484022 |
2458571.606124477 |
7403.14263688852 |
1133887.33713585 |
3647.01932793529 |
-78.4067171550444 |
34315.9201545272 |
T |
1 |
CATAB v2.0f-lin.ifort 2020-Oct-16 17:12:05 |
2020-Oct-16 17:12 |
2020-Oct-18 21:26 |
< 00:01 |
Earth |
0.0107255099876124 |
0.010637893623766 |
0.0108131231677541 |
14.9980839104733 |
14.9815110054912 |
2459141.392882745 |
0.532675875948196 |
4359.25559076916 |
7.78833693563214 |
-0.0827533121756051 |
269.516366409269 |
T |
1 |
CATAB v2.0f-lin.ifort 2020-Oct-16 17:12:05 |
2020-Oct-16 17:12 |
|
|